Location: Praha
(50.0830°N, 14.4670°E)
Time: 03:18:35
(UTC+01:00)

ISS - Pass Details

Date: 13 November 2025
Orbit: 414 x 420 km, 51.6° (Epoch: 18 November)

Event Time Altitude Azimuth Distance (km) Brightness Sun altitude
Rises 18:11:28 0° 207° (SSW) 2,340 0.5 -17.8°
Reaches altitude 10° 18:13:56 10° 188° (S) 1,482 -0.8 -18.2°
Enters shadow 18:15:31 17° 162° (SSE) 1,116 -1.7 -18.4°
